�N����,����,�~����,�C��,���x,�C��,����,���ϕ���,�ő�u�ԕ���,�ő厞����,���˗�,�I�_���x,�n�����x,�ő啗���N��,DTYPE
"23/04/19","00:10",0.2,14.3,94.9,1009.5,279.0,1.3,2.1,260.7,0.00,13.5,14.8,"00:03:28",1
"23/04/19","00:20",0.0,14.3,94.9,1010.0,301.5,1.3,2.4,313.8,0.00,13.5,14.7,"00:10:02",1
"23/04/19","00:30",0.2,14.4,95.0,1009.7,327.4,1.7,2.8,308.5,0.00,13.6,14.9,"00:22:00",1
"23/04/19","00:40",0.4,14.5,95.1,1010.0,314.9,1.1,2.2,345.4,0.00,13.8,14.7,"00:39:38",1
"23/04/19","00:50",0.8,14.5,95.2,1009.5,282.4,1.8,3.2,322.8,0.00,13.8,14.6,"00:41:20",1
"23/04/19","01:00",1.2,14.5,95.2,1009.3,309.3,0.5,1.2,255.5,0.00,13.8,14.8,"00:50:08",1
"23/04/19","01:10",0.2,14.5,95.3,1009.3,298.6,0.7,1.4,306.1,0.00,13.8,14.7,"01:03:28",1
"23/04/19","01:20",0.0,14.5,95.4,1009.3,299.0,1.0,1.7,260.1,0.00,13.8,14.9,"01:13:44",1
"23/04/19","01:30",0.0,14.5,95.5,1009.3,259.4,0.8,1.8,248.6,0.00,13.8,14.7,"01:22:40",1
"23/04/19","01:40",0.0,14.5,95.6,1009.3,313.7,1.0,1.8,321.4,0.00,13.8,14.7,"01:31:36",1
"23/04/19","01:50",0.0,14.5,95.7,1008.6,313.6,1.3,2.0,325.8,0.00,13.9,14.7,"01:45:24",1
"23/04/19","02:00",0.0,14.5,95.8,1008.8,345.5,1.3,2.6,341.9,0.00,13.9,14.7,"01:55:26",1
"23/04/19","02:10",0.0,14.5,96.0,1008.6,271.8,1.5,2.4,330.1,0.00,13.9,14.8,"02:00:52",1
"23/04/19","02:20",0.0,14.6,96.0,1008.8,340.3,0.6,1.8,318.0,0.00,14.0,14.8,"02:10:08",1
"23/04/19","02:30",0.0,14.5,96.1,1008.3,117.5,0.6,1.3,118.2,0.00,13.9,14.6,"02:21:36",1
"23/04/19","02:40",0.0,14.6,96.2,1008.3,268.7,1.1,1.9,259.6,0.00,14.0,14.7,"02:36:58",1
"23/04/19","02:50",0.2,14.6,96.3,1008.6,296.9,1.1,1.9,318.3,0.00,14.1,14.6,"02:49:16",1
"23/04/19","03:00",0.0,14.6,96.3,1008.6,336.7,1.5,2.4,341.8,0.00,14.1,14.7,"02:54:16",1
"23/04/19","03:10",0.0,14.6,96.4,1008.3,315.8,1.3,2.0,316.4,0.00,14.1,14.8,"03:04:34",1
"23/04/19","03:20",0.0,14.6,96.5,1008.3,331.9,1.0,1.6,337.1,0.00,14.1,14.5,"03:14:50",1
"23/04/19","03:30",0.0,14.4,96.5,1008.3,312.0,0.8,1.6,326.2,0.00,13.9,14.5,"03:22:40",1
"23/04/19","03:40",0.0,14.5,96.7,1008.1,320.6,1.0,1.6,349.5,0.00,14.0,14.6,"03:37:18",1
"23/04/19","03:50",0.0,14.4,96.7,1008.3,292.6,1.0,1.6,272.2,0.00,13.9,14.8,"03:41:44",1
"23/04/19","04:00",0.0,14.4,96.8,1008.3,321.8,0.8,1.4,324.2,0.00,13.9,14.5,"03:59:58",1
"23/04/19","04:10",0.0,14.4,96.8,1008.1,319.4,1.3,1.6,323.0,0.00,13.9,14.4,"04:07:42",1
"23/04/19","04:20",0.0,14.3,96.9,1008.3,316.7,0.7,1.3,317.9,0.00,13.9,14.8,"04:10:16",1
"23/04/19","04:30",0.0,14.4,97.0,1007.8,315.5,0.7,1.7,265.0,0.00,14.0,14.5,"04:29:50",1
"23/04/19","04:40",0.0,14.4,97.0,1008.1,308.2,1.3,1.8,310.4,0.00,14.0,14.6,"04:31:32",1
"23/04/19","04:50",0.0,14.4,97.0,1008.3,300.9,0.8,1.4,320.3,0.00,14.0,14.5,"04:41:04",1
"23/04/19","05:00",0.0,14.3,97.1,1008.3,304.1,1.1,1.4,309.5,0.00,13.9,14.4,"04:59:14",1
"23/04/19","05:10",0.0,14.2,97.2,1008.3,333.1,0.8,1.6,328.7,0.00,13.8,14.6,"05:09:54",1
"23/04/19","05:20",0.0,14.1,97.3,1008.3,327.6,1.2,1.9,311.0,0.00,13.7,14.7,"05:10:56",1
"23/04/19","05:30",0.0,14.1,97.3,1008.6,318.0,1.2,1.4,331.2,0.00,13.7,14.5,"05:21:28",1
"23/04/19","05:40",0.0,14.0,97.4,1008.3,305.7,1.1,1.4,312.8,0.00,13.6,14.4,"05:36:56",1
"23/04/19","05:50",0.0,14.0,97.5,1008.1,294.7,1.1,1.4,330.4,0.00,13.7,14.4,"05:45:52",1
"23/04/19","06:00",0.0,14.2,97.5,1007.8,312.3,1.5,1.8,313.4,0.00,13.8,14.6,"05:50:48",1
"23/04/19","06:10",0.0,14.2,97.6,1008.1,299.5,1.1,1.6,336.7,0.00,13.9,14.7,"06:08:24",1
"23/04/19","06:20",0.0,14.2,97.6,1008.1,310.5,1.1,1.3,342.4,0.00,13.9,14.6,"06:10:24",1
"23/04/19","06:30",0.0,14.3,97.7,1008.3,328.7,1.2,1.6,342.3,0.00,14.0,14.6,"06:21:36",1
"23/04/19","06:40",0.0,14.4,97.8,1008.6,301.9,1.1,1.8,336.6,0.00,14.1,14.4,"06:39:56",1
"23/04/19","06:50",0.0,14.5,97.7,1007.8,330.4,1.1,1.7,335.0,0.01,14.2,14.3,"06:47:02",1
"23/04/19","07:00",0.0,14.6,97.9,1008.6,301.1,1.2,1.6,323.3,0.04,14.3,14.6,"06:56:02",1
"23/04/19","07:10",0.0,15.0,97.8,1008.6,282.9,1.3,1.3,286.8,0.04,14.7,14.4,"07:00:34",1
"23/04/19","07:20",0.0,15.3,97.8,1008.3,300.8,1.0,1.3,329.3,0.03,15.0,14.3,"07:16:56",1
"23/04/19","07:30",0.0,15.2,97.7,1008.6,317.9,1.0,1.2,345.2,0.01,14.9,14.5,"07:20:52",1
"23/04/19","07:40",0.0,15.4,97.9,1008.6,242.6,0.5,0.6,233.9,0.05,15.1,14.4,"07:36:46",1
"23/04/19","07:50",0.0,15.8,97.7,1008.3,254.1,1.1,1.6,260.6,0.11,15.5,14.6,"07:43:38",1
"23/04/19","08:00",0.0,16.0,97.8,1008.1,277.7,0.8,1.7,335.4,0.11,15.7,14.8,"07:58:00",1
"23/04/19","08:10",0.0,16.4,97.8,1008.6,315.9,1.2,2.1,338.1,0.18,16.1,14.6,"08:00:24",1
"23/04/19","08:20",0.0,16.5,97.7,1008.6,322.4,1.1,2.2,338.7,0.15,16.2,14.4,"08:18:56",1
"23/04/19","08:30",0.0,16.8,97.6,1008.6,307.1,0.7,1.6,335.4,0.12,16.5,14.7,"08:20:16",1
"23/04/19","08:40",0.0,17.0,97.6,1008.6,305.7,1.0,1.4,326.1,0.09,16.7,14.6,"08:32:00",1
"23/04/19","08:50",0.0,17.0,97.5,1009.3,271.2,0.7,1.4,257.9,0.03,16.6,14.6,"08:44:08",1
"23/04/19","09:00",0.0,17.1,97.5,1008.8,285.2,0.6,1.1,317.4,0.02,16.7,14.7,"08:55:20",1
"23/04/19","09:10",0.0,17.2,97.6,1008.8,294.2,0.5,0.8,335.0,0.06,16.9,14.6,"09:08:08",1
"23/04/19","09:20",0.0,17.6,97.6,1008.8,307.9,0.3,0.9,308.9,0.12,17.3,14.6,"09:11:04",1
"23/04/19","09:30",0.0,18.0,97.4,1008.8,313.6,1.0,1.6,314.2,0.18,17.6,14.7,"09:29:04",1
"23/04/19","09:40",0.0,18.0,97.4,1009.0,319.6,0.7,1.3,305.0,0.14,17.6,15.0,"09:30:16",1
"23/04/19","09:50",0.0,17.7,97.4,1009.5,263.5,1.1,2.1,241.8,0.08,17.3,14.8,"09:47:04",1
"23/04/19","10:00",0.0,17.4,97.0,1009.5,252.3,0.5,0.8,256.5,0.06,17.0,14.8,"09:55:52",1
"23/04/19","10:10",0.0,17.5,97.1,1009.3,237.4,0.3,1.0,215.9,0.06,17.1,14.7,"10:01:20",1
"23/04/19","10:20",0.0,17.5,96.8,1009.0,186.1,0.6,1.7,138.6,0.11,17.0,14.9,"10:11:52",1
"23/04/19","10:30",0.0,17.6,97.1,1008.8,157.3,0.6,1.2,117.6,0.14,17.2,14.9,"10:27:52",1
"23/04/19","10:40",0.0,18.0,96.8,1008.8,225.6,0.5,1.3,236.7,0.19,17.5,15.0,"10:37:36",1
"23/04/19","10:50",0.0,17.9,96.3,1009.0,239.1,0.6,1.2,204.4,0.16,17.3,15.1,"10:46:24",1
"23/04/19","11:00",0.0,17.6,96.0,1009.5,207.6,1.2,2.4,245.8,0.06,17.0,15.0,"10:53:04",1
"23/04/19","11:10",0.0,17.6,96.0,1009.7,216.7,0.8,2.0,239.6,0.02,17.0,15.0,"11:00:56",1
"23/04/19","11:20",0.0,17.3,95.9,1009.5,181.3,1.1,2.7,139.1,0.02,16.7,15.0,"11:14:56",1
"23/04/19","11:30",0.0,17.5,95.7,1009.0,188.7,0.7,1.7,190.2,0.03,16.8,15.1,"11:20:24",1
"23/04/19","11:40",0.0,17.8,95.6,1009.5,282.6,0.3,0.8,338.5,0.05,17.1,15.2,"11:34:56",1
"23/04/19","11:50",0.0,17.9,95.4,1009.3,242.8,0.3,0.9,185.4,0.05,17.2,15.0,"11:46:00",1
"23/04/19","12:00",0.0,18.1,95.0,1009.3,244.9,0.3,1.0,287.4,0.06,17.3,15.1,"11:50:08",1
"23/04/19","12:10",0.0,18.2,94.8,1009.3,330.9,1.2,1.9,336.9,0.09,17.4,15.3,"12:06:16",1
"23/04/19","12:20",0.0,18.6,94.3,1008.6,341.3,1.2,2.4,322.9,0.18,17.7,15.2,"12:18:56",1
"23/04/19","12:30",0.0,18.7,93.7,1008.3,344.2,0.6,2.0,309.9,0.12,17.7,15.2,"12:20:32",1
"23/04/19","12:40",0.0,19.0,92.7,1008.1,247.8,0.6,1.3,250.3,0.14,17.8,15.5,"12:35:36",1
"23/04/19","12:50",0.0,18.8,92.0,1008.3,207.7,1.1,2.4,185.3,0.09,17.5,15.5,"12:48:00",1
"23/04/19","13:00",0.0,18.9,91.7,1007.1,187.1,0.7,1.4,237.3,0.11,17.6,15.5,"12:50:32",1
"23/04/19","13:10",0.0,19.1,90.8,1006.9,137.9,0.8,1.9,116.0,0.15,17.6,15.3,"13:03:44",1
"23/04/19","13:20",0.0,19.9,90.2,1007.6,230.4,1.0,1.8,235.4,0.23,18.3,15.3,"13:16:08",1
"23/04/19","13:30",0.0,20.2,88.5,1007.1,222.6,1.1,2.9,235.5,0.21,18.3,15.4,"13:27:04",1
"23/04/19","13:40",0.0,19.6,87.3,1007.6,210.9,1.6,2.9,198.2,0.09,17.5,15.6,"13:30:48",1
"23/04/19","13:50",0.0,19.4,87.0,1007.6,217.6,1.5,3.2,237.1,0.03,17.2,15.6,"13:48:40",1
"23/04/19","14:00",0.0,19.3,87.3,1007.6,212.1,1.2,2.7,225.0,0.00,17.2,15.5,"13:58:48",1
"23/04/19","14:10",0.0,19.2,87.8,1007.1,213.8,0.7,1.8,191.9,0.01,17.2,15.6,"14:01:12",1
"23/04/19","14:20",0.0,19.4,88.0,1007.1,290.0,0.5,1.0,324.4,0.04,17.4,15.6,"14:10:02",1
"23/04/19","14:30",0.0,19.5,87.9,1007.6,318.1,0.8,1.6,336.6,0.03,17.5,15.7,"14:24:56",1
"23/04/19","14:40",0.0,19.6,87.8,1007.6,307.6,0.8,1.3,332.1,0.04,17.6,15.6,"14:34:32",1
"23/04/19","14:50",0.0,19.6,87.7,1007.6,316.5,0.5,1.4,334.5,0.02,17.5,15.8,"14:49:28",1
"23/04/19","15:00",0.0,19.7,87.6,1007.4,350.3,1.1,1.8,350.4,0.04,17.6,15.7,"14:53:20",1
"23/04/19","15:10",0.0,19.9,87.4,1007.6,344.2,1.0,1.9,345.5,0.10,17.8,15.7,"15:08:16",1
"23/04/19","15:20",0.0,20.3,85.9,1007.4,332.3,1.7,3.4,335.7,0.19,17.9,15.8,"15:16:40",1
"23/04/19","15:30",0.0,20.9,83.0,1006.9,293.1,1.6,3.1,336.1,0.27,17.9,15.8,"15:22:00",1
"23/04/19","15:40",0.0,21.7,79.8,1006.7,303.3,1.8,3.5,308.3,0.31,18.1,15.8,"15:36:24",1
"23/04/19","15:50",0.0,21.7,77.2,1006.4,319.1,2.3,4.5,334.0,0.25,17.6,15.9,"15:44:56",1
"23/04/19","16:00",0.0,22.3,75.8,1006.2,292.8,0.8,2.0,264.0,0.25,17.9,15.8,"15:52:08",1
"23/04/19","16:10",0.0,22.2,75.6,1006.0,202.9,1.2,2.4,243.2,0.18,17.7,16.0,"16:06:12",1
"23/04/19","16:20",0.0,21.9,75.6,1006.0,219.7,1.3,2.7,249.7,0.12,17.4,16.0,"16:11:36",1
"23/04/19","16:30",0.0,21.6,76.1,1006.2,155.9,1.0,2.0,145.7,0.09,17.3,16.2,"16:25:44",1
"23/04/19","16:40",0.0,21.5,77.1,1006.0,194.8,0.7,1.4,205.8,0.05,17.4,16.1,"16:34:32",1
"23/04/19","16:50",0.0,21.3,77.7,1005.7,328.7,0.7,2.5,341.8,0.03,17.3,16.3,"16:48:24",1
"23/04/19","17:00",0.0,21.1,78.4,1005.7,343.6,1.3,2.6,349.3,0.04,17.2,16.2,"16:51:36",1
"23/04/19","17:10",0.0,20.9,78.8,1005.5,311.9,1.8,3.3,346.4,0.05,17.1,16.3,"17:08:08",1
"23/04/19","17:20",0.0,20.8,78.6,1006.0,270.7,1.6,2.8,240.1,0.04,17.0,16.4,"17:12:32",1
"23/04/19","17:30",0.0,20.6,78.8,1006.2,264.7,1.7,2.9,246.6,0.02,16.8,16.3,"17:29:28",1
"23/04/19","17:40",0.0,20.4,79.3,1005.7,257.1,1.6,3.1,247.3,0.02,16.7,16.4,"17:30:40",1
"23/04/19","17:50",0.0,20.3,79.9,1005.5,301.5,1.2,2.2,313.8,0.02,16.8,16.3,"17:40:02",1
"23/04/19","18:00",0.0,20.3,80.6,1005.5,303.1,1.3,2.2,317.0,0.01,16.9,16.3,"17:50:40",1
"23/04/19","18:10",0.0,20.2,81.5,1006.4,275.4,1.2,2.5,256.9,0.00,17.0,16.4,"18:09:04",1
"23/04/19","18:20",0.0,19.9,82.7,1006.7,257.7,1.2,2.2,258.7,0.00,16.9,16.3,"18:12:32",1
"23/04/19","18:30",0.0,19.8,83.7,1006.9,312.0,1.1,1.9,336.3,0.00,17.0,16.3,"18:20:56",1
"23/04/19","18:40",0.0,19.7,84.6,1006.9,322.4,1.0,1.6,340.6,0.00,17.1,16.3,"18:32:24",1
"23/04/19","18:50",0.0,19.4,85.2,1006.7,315.0,1.3,2.5,324.5,0.00,16.9,16.4,"18:46:00",1
"23/04/19","19:00",0.0,19.2,85.4,1006.9,1.4,0.7,3.4,311.3,0.00,16.7,16.3,"18:59:52",1
"23/04/19","19:10",0.0,19.3,85.4,1007.1,293.2,1.1,2.7,301.1,0.00,16.8,16.4,"19:00:08",1
"23/04/19","19:20",0.0,19.2,85.6,1006.7,124.2,0.7,2.0,133.3,0.00,16.8,16.3,"19:18:08",1
"23/04/19","19:30",0.0,19.0,86.3,1007.1,205.3,0.6,1.4,193.7,0.00,16.7,16.2,"19:23:36",1
"23/04/19","19:40",0.0,18.8,87.0,1006.7,200.4,1.2,2.0,210.3,0.00,16.6,16.4,"19:32:56",1
"23/04/19","19:50",0.0,18.5,87.8,1006.9,213.2,1.1,1.9,219.4,0.00,16.5,16.4,"19:42:16",1
"23/04/19","20:00",0.0,18.4,88.4,1006.9,313.0,1.2,2.5,357.5,0.00,16.5,16.2,"19:58:40",1
"23/04/19","20:10",0.0,18.3,88.9,1006.9,340.7,1.5,2.5,331.3,0.00,16.5,16.3,"20:07:52",1
"23/04/19","20:20",0.0,18.0,89.4,1006.4,327.0,1.3,2.2,344.4,0.00,16.3,16.4,"20:10:40",1
"23/04/19","20:30",0.0,17.9,89.8,1006.9,306.1,1.0,1.2,329.8,0.00,16.2,16.2,"20:20:40",1
"23/04/19","20:40",0.0,18.0,90.2,1006.9,273.7,1.1,1.3,264.7,0.00,16.4,16.5,"20:37:52",1
"23/04/19","20:50",0.0,17.8,90.5,1006.9,311.2,1.2,1.8,313.2,0.00,16.3,16.2,"20:46:24",1
"23/04/19","21:00",0.0,17.5,90.7,1006.9,289.5,0.8,1.1,267.1,0.00,16.0,16.3,"20:54:24",1
"23/04/19","21:10",0.0,17.3,91.1,1006.9,321.9,1.3,2.1,315.9,0.00,15.9,16.1,"21:06:40",1
"23/04/19","21:20",0.0,17.0,91.5,1006.9,322.2,1.3,1.9,321.9,0.00,15.6,16.3,"21:14:00",1
"23/04/19","21:30",0.0,16.8,91.8,1006.4,324.4,1.3,1.7,324.4,0.00,15.5,16.0,"21:25:12",1
"23/04/19","21:40",0.0,16.7,92.3,1006.9,329.9,1.5,1.9,337.4,0.00,15.5,16.2,"21:37:20",1
"23/04/19","21:50",0.0,16.6,92.6,1006.9,318.3,1.5,2.0,321.3,0.00,15.4,16.3,"21:46:40",1
"23/04/19","22:00",0.0,16.6,92.9,1006.9,303.4,1.2,1.6,305.2,0.00,15.5,16.2,"21:55:28",1
"23/04/19","22:10",0.0,16.8,93.2,1006.9,270.1,1.3,2.1,251.0,0.00,15.7,16.2,"22:07:36",1
"23/04/19","22:20",0.0,16.9,93.4,1006.9,297.7,1.0,1.2,260.1,0.00,15.9,16.2,"22:10:40",1
"23/04/19","22:30",0.0,16.9,93.6,1007.4,343.7,1.5,1.9,344.0,0.00,15.9,16.0,"22:21:20",1
"23/04/19","22:40",0.0,16.8,93.8,1006.7,333.6,1.6,2.1,337.3,0.00,15.8,15.9,"22:39:44",1
"23/04/19","22:50",0.0,16.6,93.9,1006.9,313.1,1.7,2.2,335.9,0.00,15.7,16.2,"22:41:04",1
"23/04/19","23:00",0.0,16.4,94.2,1006.9,297.0,1.2,2.6,326.0,0.00,15.5,15.7,"22:57:28",1
"23/04/19","23:10",0.0,16.2,94.4,1006.7,316.1,1.6,2.1,325.6,0.00,15.3,16.1,"23:03:06",1
"23/04/19","23:20",0.0,16.1,94.6,1006.7,299.3,1.2,2.1,295.6,0.00,15.3,16.0,"23:17:46",1
"23/04/19","23:30",0.0,16.1,94.8,1006.9,295.7,1.7,2.4,325.2,0.00,15.3,16.1,"23:29:04",1
"23/04/19","23:40",0.0,15.9,94.9,1006.7,305.6,1.5,2.1,330.4,0.00,15.1,16.0,"23:30:16",1
"23/04/19","23:50",0.0,15.8,95.0,1007.1,301.0,1.5,2.0,312.2,0.00,15.0,15.8,"23:44:08",1
"23/04/19","24:00",0.0,15.4,95.2,1007.1,81.4,0.2,0.5,313.2,0.00,14.7,16.0,"23:50:24",1
